When you browse on this site, cookies collect data to enhance your experience and personalize the content and advertising you see.
Visit our Privacy Policy to learn more. By continuing to use the site, you agree to this use of cookies and data.
  • In Hungary
  • List of Countries
  • For 7 days
  • Water Temperature
  • Weather Map
  • News
  • Weather Widgets
  • user-avatar
    Login

    Hourly Weather Baygulovo

    Today, 22 August, Thursday

    Time Temperature Precipitation Wind Pressure Humidity
    00:00 +16°C° 0 mm 0 mps 761 mmHg 91%
    01:00 +15°C° 0 mm 0 mps 761 mmHg 92%
    02:00 +15°C° 0 mm 0 mps 761 mmHg 92%
    03:00 +15°C° 0 mm 0 mps 761 mmHg 92%
    04:00 +16°C° 0 mm 0 mps 761 mmHg 91%
    05:00 +16°C° 0 mm 0 mps 761 mmHg 90%
    06:00 +17°C° 0 mm 0 mps 761 mmHg 88%
    07:00 +18°C° 0 mm 0 mps 761 mmHg 84%
    08:00 +20°C° 0 mm 0 mps 761 mmHg 79%
    09:00 +21°C° 0 mm 0 mps 761 mmHg 75%
    10:00 +22°C° 0 mm 0 mps 761 mmHg 71%
    11:00 +23°C° 0 mm 0 mps 760 mmHg 67%
    12:00 +24°C° 0 mm 0 mps 760 mmHg 64%
    13:00 +24°C° 0 mm 0 mps 760 mmHg 64%
    14:00 +26°C° 0 mm 1 mps 760 mmHg 63%
    15:00 +27°C° 0 mm 1 mps 760 mmHg 63%
    16:00 +26°C° 0 mm 1 mps 760 mmHg 68%
    17:00 +25°C° 0 mm 1 mps 759 mmHg 72%
    18:00 +24°C° 0 mm 1 mps 759 mmHg 77%
    19:00 +23°C° 0 mm 1 mps 759 mmHg 80%
    20:00 +22°C° 0 mm 1 mps 759 mmHg 82%
    21:00 +21°C° 0 mm 1 mps 760 mmHg 85%
    22:00 +20°C° 0 mm 2 mps 759 mmHg 87%
    23:00 +19°C° 0 mm 2 mps 759 mmHg 88%

    Tomorrow, 23 August, Friday

    Time Temperature Precipitation Wind Pressure Humidity
    00:00 +19°C° 0 mm 2 mps 758 mmHg 90%
    01:00 +19°C° 0 mm 2 mps 759 mmHg 90%
    02:00 +18°C° 0 mm 3 mps 759 mmHg 91%
    03:00 +18°C° 0 mm 3 mps 759 mmHg 92%
    04:00 +19°C° 0.1 mm 3 mps 759 mmHg 91%
    05:00 +19°C° 0.1 mm 3 mps 759 mmHg 90%
    06:00 +19°C° 0.1 mm 3 mps 759 mmHg 89%
    07:00 +19°C° 0.2 mm 4 mps 759 mmHg 89%
    08:00 +20°C° 0.2 mm 4 mps 760 mmHg 89%
    09:00 +20°C° 0.2 mm 4 mps 760 mmHg 89%
    10:00 +20°C° 0 mm 4 mps 760 mmHg 84%
    11:00 +21°C° 0 mm 4 mps 760 mmHg 78%
    12:00 +21°C° 0 mm 4 mps 760 mmHg 72%
    13:00 +22°C° 0 mm 4 mps 760 mmHg 69%
    14:00 +22°C° 0 mm 4 mps 761 mmHg 67%
    15:00 +22°C° 0 mm 4 mps 761 mmHg 64%
    16:00 +21°C° 0 mm 3 mps 761 mmHg 69%
    17:00 +20°C° 0 mm 3 mps 761 mmHg 73%
    18:00 +19°C° 0 mm 2 mps 761 mmHg 77%
    19:00 +18°C° 0 mm 2 mps 761 mmHg 79%
    20:00 +17°C° 0 mm 2 mps 761 mmHg 82%
    21:00 +15°C° 0 mm 1 mps 762 mmHg 84%
    22:00 +15°C° 0 mm 1 mps 762 mmHg 85%
    23:00 +15°C° 0 mm 1 mps 762 mmHg 85%

    Day after tomorrow, 24 August, Saturday

    Time Temperature Precipitation Wind Pressure Humidity
    00:00 +14°C° 0 mm 1 mps 762 mmHg 85%
    01:00 +14°C° 0 mm 1 mps 762 mmHg 87%
    02:00 +14°C° 0 mm 1 mps 762 mmHg 88%
    03:00 +13°C° 0 mm 1 mps 762 mmHg 89%
    04:00 +14°C° 0 mm 1 mps 762 mmHg 87%
    05:00 +14°C° 0 mm 1 mps 762 mmHg 86%
    06:00 +15°C° 0 mm 1 mps 762 mmHg 85%
    07:00 +18°C° 0 mm 1 mps 763 mmHg 80%
    08:00 +18°C° 0 mm 2 mps 763 mmHg 75%
    09:00 +20°C° 0 mm 2 mps 763 mmHg 70%
    10:00 +20°C° 0 mm 2 mps 763 mmHg 66%
    11:00 +21°C° 0 mm 3 mps 762 mmHg 61%
    12:00 +22°C° 0 mm 3 mps 762 mmHg 56%
    13:00 +22°C° 0 mm 3 mps 762 mmHg 56%
    14:00 +22°C° 0 mm 3 mps 762 mmHg 56%
    15:00 +22°C° 0 mm 3 mps 762 mmHg 55%
    16:00 +21°C° 0 mm 2 mps 762 mmHg 60%
    17:00 +20°C° 0 mm 2 mps 762 mmHg 65%
    18:00 +20°C° 0 mm 1 mps 761 mmHg 71%
    19:00 +19°C° 0 mm 1 mps 761 mmHg 73%
    20:00 +18°C° 0 mm 1 mps 761 mmHg 75%
    21:00 +16°C° 0 mm 1 mps 761 mmHg 77%
    22:00 +15°C° 0 mm 1 mps 761 mmHg 80%
    23:00 +15°C° 0 mm 1 mps 761 mmHg 82%

    25 August, Sunday

    Time Temperature Precipitation Wind Pressure Humidity
    00:00 +15°C° 0 mm 2 mps 761 mmHg 85%
    01:00 +14°C° 0 mm 2 mps 760 mmHg 86%
    02:00 +14°C° 0 mm 2 mps 760 mmHg 86%
    03:00 +14°C° 0 mm 2 mps 760 mmHg 87%
    04:00 +14°C° 0 mm 2 mps 760 mmHg 87%
    05:00 +13°C° 0 mm 3 mps 760 mmHg 86%
    06:00 +14°C° 0 mm 3 mps 759 mmHg 85%
    07:00 +16°C° 0 mm 3 mps 759 mmHg 80%
    08:00 +18°C° 0 mm 4 mps 759 mmHg 75%
    09:00 +20°C° 0 mm 5 mps 758 mmHg 70%
    10:00 +21°C° 0 mm 5 mps 758 mmHg 68%
    11:00 +22°C° 0 mm 5 mps 758 mmHg 65%
    12:00 +23°C° 0 mm 5 mps 757 mmHg 62%
    13:00 +23°C° 0 mm 6 mps 757 mmHg 62%
    14:00 +23°C° 0 mm 6 mps 757 mmHg 62%
    15:00 +23°C° 0 mm 6 mps 756 mmHg 62%
    16:00 +21°C° 0.3 mm 5 mps 756 mmHg 69%
    17:00 +20°C° 0.3 mm 4 mps 756 mmHg 75%
    18:00 +19°C° 0.3 mm 4 mps 756 mmHg 82%
    19:00 +18°C° 0.1 mm 3 mps 756 mmHg 85%
    20:00 +17°C° 0.1 mm 3 mps 756 mmHg 88%
    21:00 +16°C° 0.1 mm 2 mps 756 mmHg 91%
    22:00 +16°C° 0.2 mm 2 mps 756 mmHg 91%
    23:00 +16°C° 0.2 mm 2 mps 756 mmHg 91%

    26 August, Monday

    Time Temperature Precipitation Wind Pressure Humidity
    00:00 +15°C° 0.2 mm 2 mps 756 mmHg 91%
    01:00 +14°C° 0.4 mm 3 mps 756 mmHg 92%
    02:00 +13°C° 0.4 mm 3 mps 756 mmHg 92%
    03:00 +13°C° 0.4 mm 4 mps 756 mmHg 93%
    04:00 +12°C° 0 mm 4 mps 756 mmHg 93%
    05:00 +12°C° 0 mm 4 mps 756 mmHg 93%
    06:00 +10°C° 0 mm 5 mps 757 mmHg 93%
    07:00 +12°C° 0 mm 5 mps 757 mmHg 90%
    08:00 +12°C° 0 mm 5 mps 757 mmHg 88%
    09:00 +13°C° 0 mm 5 mps 758 mmHg 85%
    10:00 +13°C° 0.2 mm 5 mps 758 mmHg 81%
    11:00 +14°C° 0.2 mm 5 mps 758 mmHg 77%
    12:00 +15°C° 0.2 mm 6 mps 759 mmHg 73%
    13:00 +15°C° 0.2 mm 6 mps 759 mmHg 73%
    14:00 +15°C° 0.2 mm 6 mps 759 mmHg 72%
    15:00 +15°C° 0.2 mm 7 mps 759 mmHg 72%
    16:00 +14°C° 0 mm 6 mps 759 mmHg 74%
    17:00 +13°C° 0 mm 6 mps 760 mmHg 76%
    18:00 +12°C° 0 mm 5 mps 760 mmHg 77%
    19:00 +10°C° 0 mm 5 mps 760 mmHg 78%
    20:00 +10°C° 0 mm 4 mps 761 mmHg 79%
    21:00 +7°C° 0 mm 4 mps 761 mmHg 80%
    22:00 +7°C° 0 mm 4 mps 762 mmHg 81%
    23:00 +7°C° 0 mm 3 mps 762 mmHg 81%

    27 August, Tuesday

    Time Temperature Precipitation Wind Pressure Humidity
    00:00 +5°C° 0 mm 3 mps 762 mmHg 82%
    01:00 +5°C° 0 mm 3 mps 762 mmHg 85%
    02:00 +5°C° 0 mm 3 mps 762 mmHg 87%
    03:00 +4°C° 0 mm 3 mps 762 mmHg 89%
    04:00 +5°C° 0 mm 3 mps 763 mmHg 87%
    05:00 +5°C° 0 mm 3 mps 763 mmHg 85%
    06:00 +7°C° 0 mm 3 mps 763 mmHg 83%
    07:00 +8°C° 0 mm 3 mps 763 mmHg 78%
    08:00 +10°C° 0 mm 4 mps 763 mmHg 72%
    09:00 +11°C° 0 mm 4 mps 763 mmHg 67%
    10:00 +12°C° 0 mm 4 mps 763 mmHg 64%
    11:00 +13°C° 0 mm 4 mps 763 mmHg 61%
    12:00 +14°C° 0 mm 4 mps 762 mmHg 57%
    13:00 +14°C° 0 mm 4 mps 762 mmHg 59%
    14:00 +14°C° 0 mm 4 mps 762 mmHg 61%
    15:00 +14°C° 0 mm 5 mps 762 mmHg 63%
    16:00 +13°C° 0 mm 4 mps 762 mmHg 68%
    17:00 +12°C° 0 mm 3 mps 762 mmHg 73%
    18:00 +13°C° 0 mm 2 mps 761 mmHg 77%
    19:00 +11°C° 0 mm 3 mps 761 mmHg 78%
    20:00 +10°C° 0 mm 3 mps 761 mmHg 79%
    21:00 +10°C° 0 mm 3 mps 761 mmHg 80%
    22:00 +10°C° 0 mm 3 mps 761 mmHg 81%
    23:00 +10°C° 0 mm 3 mps 761 mmHg 82%
    Show more